Waarnemingen

Advertentie
Mijn weer
Baltasound, Groot Brittannië (3002): temperatuur & dauwpunt: 12.02.2018 04:00:00 - 18.02.2018 04:00:00 (GMT)Baltasound, Groot Brittannië (3002): temperatuur -20cm: 12.02.2018 04:00:00 - 18.02.2018 04:00:00 (GMT)Baltasound, Groot Brittannië (3002): windsnelheid & windstoten: 12.02.2018 04:00:00 - 18.02.2018 04:00:00 (GMT)Baltasound, Groot Brittannië (3002): windrichting: 12.02.2018 04:00:00 - 18.02.2018 04:00:00 (GMT)Baltasound, Groot Brittannië (3002): luchtdruk: 12.02.2018 04:00:00 - 18.02.2018 04:00:00 (GMT)Baltasound, Groot Brittannië (3002): zicht: 12.02.2018 04:00:00 - 18.02.2018 04:00:00 (GMT)Baltasound, Groot Brittannië (3002): neerslag: 12.02.2018 04:00:00 - 18.02.2018 04:00:00 (GMT)
Datum & Tijd tt [°C] td [°C] tt -20cm [°C] ff [km/u] ff [kn] fx [km/u] fx [kn] dd ppp [hPa] vv [km] rr [mm]
18.02.2018 04:00:00 3,2 0,6 - 21 11 - - W 1014,1 35 0,0
18.02.2018 03:00:00 1,9 -0,1 - 16 9 - - WZW 1013,8 35 0,0
18.02.2018 02:00:00 3,1 1,3 - 18 10 - - WZW 1013,5 40 0,0
18.02.2018 01:00:00 2,3 1,4 - 24 13 - - ZW 1013,0 45 0,4
18.02.2018 00:00:00 1,3 0,4 - 16 9 - - ZW 1012,6 50 0,6
17.02.2018 23:00:00 2,9 2,0 - 26 14 - - WZW 1012,5 4,7 0,6
17.02.2018 22:00:00 3,0 2,3 - 16 9 - - ZW 1011,7 50 0,4
17.02.2018 21:00:00 2,4 1,4 - 18 10 - - ZZW 1011,3 35 0,0
17.02.2018 20:00:00 2,5 1,5 - 16 9 - - ZZW 1011,0 50 0,6
17.02.2018 19:00:00 3,5 2,4 - 26 14 - - ZZW 1010,8 30 0,2
17.02.2018 18:00:00 2,9 1,6 - 24 13 - - ZW 1010,4 50 0,0
17.02.2018 17:00:00 3,9 2,5 - 22 12 - - ZW 1009,9 45 0,2
17.02.2018 16:00:00 5,4 3,2 - 24 13 - - ZZW 1009,6 26 0,0
17.02.2018 15:00:00 5,4 3,7 - 26 14 - - ZW 1009,3 15 0,2
17.02.2018 14:00:00 6,4 4,2 - 22 12 - - ZZW 1009,4 26 0,0
17.02.2018 13:00:00 7,6 4,7 - 24 13 - - ZZW 1009,6 30 0,0
17.02.2018 12:00:00 6,7 4,1 - 28 15 - - ZZW 1009,5 30 0,0
17.02.2018 11:00:00 6,6 4,7 - 24 13 - - Z 1009,5 30 0,0
17.02.2018 10:00:00 5,3 4,0 - 22 12 - - ZZW 1009,3 20 0,0
17.02.2018 09:00:00 4,6 3,5 3,0 24 13 - - Z 1009,3 16 0,0
17.02.2018 08:00:00 4,7 3,6 - 24 13 - - Z 1009,0 18 0,0
17.02.2018 07:00:00 5,0 3,8 - 28 15 - - Z 1009,0 15 0,0
17.02.2018 06:00:00 5,6 4,3 - 29 16 46 25 Z 1008,9 18 0,4
17.02.2018 05:00:00 5,5 4,2 - 26 14 48 26 Z 1009,2 9 0,2
17.02.2018 04:00:00 5,8 3,4 - 34 18 48 26 Z 1009,6 21 0,0
17.02.2018 03:00:00 5,9 4,0 - 29 16 - - Z 1010,2 18 0,0
17.02.2018 02:00:00 5,9 3,8 - 29 16 - - ZZO 1011,2 17 0,0
17.02.2018 01:00:00 5,6 3,3 - 28 15 - - ZZO 1011,7 25 0,0
17.02.2018 00:00:00 4,9 2,9 - 24 13 - - ZZO 1012,3 23 0,0
16.02.2018 23:00:00 3,4 2,2 - 13 7 - - Z 1012,6 19 0,0
16.02.2018 22:00:00 3,1 1,9 - 18 10 - - Z 1012,9 23 0,0
16.02.2018 21:00:00 2,5 1,2 - 16 9 - - ZZW 1013,0 27 0,0
16.02.2018 20:00:00 3,2 1,8 - 26 14 - - ZZW 1013,0 26 0,0
16.02.2018 19:00:00 3,0 1,6 - 24 13 - - Z 1012,7 23 0,0
16.02.2018 18:00:00 2,4 1,1 - 16 9 - - ZZW 1012,3 24 0,0
16.02.2018 17:00:00 3,1 1,3 - 21 11 - - ZW 1011,8 45 0,0
16.02.2018 16:00:00 3,2 1,2 - 16 9 48 26 ZW 1011,2 35 0,0
16.02.2018 15:00:00 4,6 1,8 - 22 12 - - ZW 1011,0 40 0,0
16.02.2018 14:00:00 6,0 2,8 - 16 9 - - ZW 1010,4 29 0,0
16.02.2018 13:00:00 6,1 2,8 - 28 15 - - ZW 1010,0 23 0,0
16.02.2018 12:00:00 5,9 2,4 - 29 16 - - WZW 1009,2 21 0,0
16.02.2018 11:00:00 5,4 3,2 - 22 12 - - ZW 1008,6 18 0,0
16.02.2018 10:00:00 4,8 2,4 - 18 10 - - ZW 1007,6 16 0,2
16.02.2018 09:00:00 4,3 1,5 3,0 18 10 - - ZW 1006,7 12 0,2
16.02.2018 08:00:00 2,3 0,6 - 18 10 - - ZW 1005,5 13 0,0
16.02.2018 07:00:00 3,4 1,3 - 26 14 - - ZW 1004,2 13 0,0
16.02.2018 06:00:00 3,7 1,4 - 24 13 46 25 ZW 1003,5 13 0,0
16.02.2018 05:00:00 3,7 1,4 - 21 11 - - ZW 1002,4 12 0,2
16.02.2018 04:00:00 5,3 2,5 - 22 12 - - WZW 1001,4 9 0,0
16.02.2018 03:00:00 5,7 1,9 - 34 18 46 25 WZW 1000,5 13 0,0
16.02.2018 02:00:00 5,6 3,1 - 29 16 - - WZW 999,2 10 0,0
16.02.2018 01:00:00 5,1 2,9 - 31 17 55 30 WZW 998,0 12 0,2
16.02.2018 00:00:00 5,4 3,0 - 29 16 - - WZW 996,7 12 0,2
15.02.2018 23:00:00 3,6 2,3 - 21 11 - - ZW 995,4 20 0,0
15.02.2018 22:00:00 4,4 3,5 - 18 10 - - ZW 994,6 3,3 0,6
15.02.2018 21:00:00 4,7 3,1 - 37 20 54 29 WZW 993,5 6 0,4
15.02.2018 20:00:00 5,6 4,4 - 28 15 - - ZZW 992,0 12 0,0
15.02.2018 19:00:00 5,0 4,0 - 34 18 50 27 Z 991,2 11 0,4
15.02.2018 18:00:00 5,1 3,6 - 34 18 50 27 Z 990,8 11 0,4
15.02.2018 17:00:00 5,4 3,0 - 34 18 46 25 Z 990,1 15 0,0
15.02.2018 16:00:00 5,1 2,5 - 35 19 50 27 Z 989,1 16 0,0
15.02.2018 15:00:00 5,7 2,7 - 37 20 54 29 Z 988,5 18 0,0
15.02.2018 14:00:00 6,0 2,7 - 41 22 54 29 Z 988,0 16 0,0
15.02.2018 13:00:00 6,0 2,8 - 41 22 57 31 Z 987,8 18 0,0
15.02.2018 12:00:00 6,2 2,8 - 39 21 57 31 Z 987,2 9 0,0
15.02.2018 11:00:00 5,5 1,7 - 41 22 61 33 Z 987,1 12 0,0
15.02.2018 10:00:00 5,9 2,3 - 37 20 57 31 Z 986,7 17 0,0
15.02.2018 09:00:00 5,5 2,1 2,7 35 19 54 29 Z 986,2 11 0,0
15.02.2018 08:00:00 5,2 1,7 - 35 19 57 31 Z 986,1 13 0,0
15.02.2018 07:00:00 5,6 2,0 - 42 23 59 32 Z 985,9 12 0,0
15.02.2018 06:00:00 5,8 2,1 - 44 24 59 32 Z 985,7 12 0,0
15.02.2018 05:00:00 5,4 2,9 - 35 19 55 30 Z 985,7 9 0,0
15.02.2018 04:00:00 5,4 2,8 - 39 21 59 32 Z 985,2 10 0,0
15.02.2018 03:00:00 5,4 3,2 - 35 19 55 30 Z 984,9 8 0,0
15.02.2018 02:00:00 5,3 2,7 - 41 22 57 31 Z 984,4 11 0,0
15.02.2018 01:00:00 5,4 3,6 - 39 21 59 32 Z 983,8 9 0,0
15.02.2018 00:00:00 5,3 4,2 - 41 22 59 32 Z 983,5 11 0,0
14.02.2018 23:00:00 4,8 4,2 - 34 18 72 39 Z 983,3 8 1,0
14.02.2018 22:00:00 4,4 3,8 - 52 28 74 40 Z 983,4 5 2,2
14.02.2018 21:00:00 5,3 4,5 - 59 32 78 42 ZZO 983,9 6 0,2
14.02.2018 20:00:00 5,0 4,4 - 54 29 85 46 Z 984,6 6 1,0
14.02.2018 19:00:00 4,6 4,0 - 59 32 89 48 Z 985,2 6 0,4
14.02.2018 18:00:00 4,0 3,4 - 68 37 98 53 Z 985,8 6 0,2
14.02.2018 17:00:00 4,0 3,1 - 68 37 102 55 Z 986,3 6 0,4
14.02.2018 16:00:00 4,3 1,1 - 67 36 104 56 ZZO 986,9 8 0,2
14.02.2018 15:00:00 4,8 -0,5 - 68 37 98 53 Z 987,7 14 0,0
14.02.2018 14:00:00 5,5 0,7 - 63 34 91 49 ZZO 988,3 10 0,0
14.02.2018 13:00:00 5,6 0,8 - 63 34 85 46 Z 989,5 18 0,0
14.02.2018 12:00:00 5,5 0,6 - 59 32 81 44 ZZO 991,2 17 0,0
14.02.2018 11:00:00 5,1 -0,1 - 59 32 80 43 ZZO 992,1 16 0,0
14.02.2018 10:00:00 4,9 0,4 - 57 31 80 43 ZZO 993,1 24 -
14.02.2018 09:00:00 4,7 0,9 2,4 50 27 70 38 Z 993,9 16 0,0
14.02.2018 08:00:00 4,5 1,0 - 46 25 63 34 Z 994,4 17 0,0
14.02.2018 07:00:00 4,4 1,1 - 41 22 57 31 Z 995,3 25 0,0
14.02.2018 06:00:00 4,2 1,2 - 35 19 50 27 Z 995,7 29 0,0
14.02.2018 05:00:00 3,7 0,6 - 34 18 48 26 Z 995,7 26 0,0
14.02.2018 04:00:00 3,2 0,4 - 31 17 - - Z 995,7 35 0,0
14.02.2018 03:00:00 2,7 0,4 - 28 15 - - Z 995,9 35 0,0
14.02.2018 02:00:00 2,0 0,1 - 31 17 52 28 ZZW 995,8 40 0,0
14.02.2018 01:00:00 2,1 0,5 - 39 21 52 28 ZZW 995,1 28 0,0
14.02.2018 00:00:00 1,7 0,0 - 35 19 50 27 ZZW 994,3 35 0,0
13.02.2018 23:00:00 1,3 -0,1 - 28 15 57 31 ZW 993,8 26 0,0
13.02.2018 22:00:00 1,6 -0,3 - 42 23 59 32 ZZW 993,1 9 0,2
13.02.2018 21:00:00 2,5 -0,2 - 31 17 54 29 ZZW 993,0 30 0,0
13.02.2018 20:00:00 2,3 0,8 - 24 13 - - ZZW 992,1 40 0,0
13.02.2018 19:00:00 1,1 0,3 - 16 9 - - ZZW 991,8 40 0,2
13.02.2018 18:00:00 1,8 1,1 - 18 10 - - ZZW 991,0 50 0,0
13.02.2018 17:00:00 1,2 0,7 - 22 12 - - WZW 990,7 10 1,0
13.02.2018 16:00:00 1,4 0,9 - 22 12 - - WZW 989,9 6 1,4
13.02.2018 15:00:00 2,5 1,7 - 22 12 - - ZW 989,1 8 1,0
13.02.2018 14:00:00 3,6 2,7 - 28 15 48 26 ZZW 988,8 25 1,0
13.02.2018 13:00:00 4,5 3,3 - 39 21 63 34 Z 988,8 22 0,4
13.02.2018 12:00:00 4,6 3,6 - 42 23 59 32 Z 989,4 4,0 1,4
13.02.2018 11:00:00 3,9 3,0 - 42 23 67 36 Z 989,7 5 1,2
13.02.2018 10:00:00 5,4 3,2 - 44 24 72 39 ZZO 989,8 10 0,2
13.02.2018 09:00:00 5,1 2,8 2,2 46 25 72 39 Z 990,0 11 0,0
13.02.2018 08:00:00 4,9 2,4 - 46 25 70 38 Z 990,3 10 0,0
13.02.2018 07:00:00 5,0 2,2 - 44 24 65 35 ZZO 990,7 13 0,2
13.02.2018 06:00:00 4,6 2,1 - 41 22 59 32 ZZO 991,3 16 0,0
13.02.2018 05:00:00 4,2 1,0 - 35 19 52 28 Z 992,1 19 0,0
13.02.2018 04:00:00 3,6 0,2 - 34 18 46 25 Z 992,7 35 0,0
13.02.2018 03:00:00 3,5 -0,2 - 26 14 - - Z 993,7 40 0,0
13.02.2018 02:00:00 2,3 1,4 - 15 8 - - ZZO 994,4 45 0,0
13.02.2018 01:00:00 -0,1 -0,8 - 13 7 - - Z 994,8 50 0,0
13.02.2018 00:00:00 0,9 0,2 - 21 11 - - ZZW 995,5 45 0,0
12.02.2018 23:00:00 1,7 0,5 - 24 13 - - ZZW 995,9 50 0,0
12.02.2018 22:00:00 1,8 0,3 - 22 12 - - ZZW 995,8 35 0,0
12.02.2018 21:00:00 1,0 -0,5 - 21 11 - - ZW 995,9 35 0,0
12.02.2018 20:00:00 1,1 0,1 - 22 12 - - Z 995,6 29 0,0
12.02.2018 19:00:00 1,3 -0,1 - 24 13 - - ZZW 995,8 50 -
12.02.2018 18:00:00 1,3 0,0 - 16 9 - - ZZW 996,1 50 -
12.02.2018 17:00:00 1,3 0,2 - 18 10 - - ZZW 996,3 40 -
12.02.2018 16:00:00 1,9 0,2 - 22 12 - - ZZW 996,4 50 -
12.02.2018 15:00:00 1,7 -0,6 - 24 13 - - ZZW 996,8 45 -
12.02.2018 14:00:00 2,4 -0,8 - 28 15 - - ZW 996,7 35 0,0
12.02.2018 13:00:00 2,9 -1,2 - 24 13 - - ZW 996,8 35 0,0
12.02.2018 12:00:00 2,1 -1,1 - 22 12 - - ZW 996,7 27 0,0
12.02.2018 11:00:00 3,3 -2,8 - 22 12 - - W 996,3 25 0,0
12.02.2018 10:00:00 3,0 -2,6 - 22 12 - - W 996,2 30 0,0
12.02.2018 09:00:00 2,7 -2,9 2,5 26 14 - - W 995,8 28 0,0
12.02.2018 08:00:00 1,0 -3,0 - 21 11 - - W 995,3 19 0,2
12.02.2018 07:00:00 2,0 -1,5 - 29 16 48 26 W 995,1 35 0,2
12.02.2018 06:00:00 1,9 -3,0 - 28 15 - - W 994,9 40 0,0
12.02.2018 05:00:00 2,2 -2,5 - 28 15 50 27 W 994,7 28 0,0
12.02.2018 04:00:00 1,9 -5,2 - 29 16 - - WNW 994,6 50 0,0

tt = temperatuur
td = dauwpunt
tt -20cm = temperatuur -20cm
ff = windsnelheid
fx = windstoten
dd = windrichting
ppp = luchtdruk
vv = zicht
rr = neerslag

Weerstations in de omgeving